Time,TemperatureF,DewpointF,PressureIn,WindDirection,WindDirectionDegrees,WindSpeedMPH,WindSpeedGustMPH,Humidity,HourlyPrecipIn,Conditions,Clouds,dailyrainin,SoftwareType,DateUTC
2013-11-04 00:04:00,44.1,37.6,30.23,SSE,157,5.0,5.0,78,0.00,,,0.00,WUHU21023XXSP,2013-11-04 06:04:00,
2013-11-04 00:11:00,44.1,37.6,30.23,SE,135,9.0,9.0,78,0.00,,,0.00,WUHU21023XXSP,2013-11-04 06:11:00,
2013-11-04 00:17:00,44.1,37.6,30.22,East,90,9.0,9.0,78,0.00,,,0.00,WUHU21023XXSP,2013-11-04 06:17:00,
2013-11-04 00:24:00,44.1,37.6,30.22,ESE,112,4.0,9.0,78,0.00,,,0.00,WUHU21023XXSP,2013-11-04 06:24:00,
2013-11-04 00:30:00,43.9,37.4,30.22,SSE,157,6.0,6.0,78,0.00,,,0.00,WUHU21023XXSP,2013-11-04 06:30:00,
2013-11-04 00:37:00,43.9,37.4,30.22,SE,135,7.0,10.0,78,0.00,,,0.00,WUHU21023XXSP,2013-11-04 06:37:00,
2013-11-04 00:43:00,43.9,37.4,30.22,SE,135,6.0,7.0,78,0.00,,,0.00,WUHU21023XXSP,2013-11-04 06:43:00,
2013-11-04 00:49:00,43.9,37.4,30.22,East,90,5.0,7.0,78,0.00,,,0.00,WUHU21023XXSP,2013-11-04 06:49:00,
2013-11-04 00:56:00,43.9,37.4,30.22,ESE,112,0.0,6.0,78,0.00,,,0.00,WUHU21023XXSP,2013-11-04 06:56:00,
2013-11-04 01:02:00,43.7,37.3,30.22,SE,135,7.0,7.0,78,0.00,,,0.00,WUHU21023XXSP,2013-11-04 07:02:00,
2013-11-04 01:09:00,43.7,37.3,30.22,SE,135,6.0,7.0,78,0.00,,,0.00,WUHU21023XXSP,2013-11-04 07:09:00,
2013-11-04 01:15:00,43.5,37.1,30.22,SSE,157,5.0,6.0,78,0.00,,,0.00,WUHU21023XXSP,2013-11-04 07:15:00,
2013-11-04 01:22:00,43.5,37.1,30.21,ESE,112,3.0,6.0,78,0.00,,,0.00,WUHU21023XXSP,2013-11-04 07:22:00,
2013-11-04 01:28:00,43.5,37.1,30.21,SE,135,3.0,7.0,78,0.00,,,0.00,WUHU21023XXSP,2013-11-04 07:28:00,
2013-11-04 01:34:00,43.3,36.9,30.21,SSE,157,3.0,9.0,78,0.00,,,0.00,WUHU21023XXSP,2013-11-04 07:34:00,
2013-11-04 01:41:00,43.3,36.9,30.21,SE,135,4.0,9.0,78,0.00,,,0.00,WUHU21023XXSP,2013-11-04 07:41:00,
2013-11-04 01:47:00,43.2,36.7,30.21,SE,135,7.0,7.0,78,0.00,,,0.00,WUHU21023XXSP,2013-11-04 07:47:00,
2013-11-04 01:54:00,43.2,36.7,30.21,ESE,112,0.0,7.0,78,0.00,,,0.00,WUHU21023XXSP,2013-11-04 07:54:00,
2013-11-04 02:00:00,43.2,36.7,30.22,SE,135,5.0,6.0,78,0.00,,,0.00,WUHU21023XXSP,2013-11-04 08:00:00,
2013-11-04 02:06:00,43.2,36.7,30.22,SE,135,4.0,5.0,78,0.00,,,0.00,WUHU21023XXSP,2013-11-04 08:06:00,
2013-11-04 02:13:00,43.2,36.7,30.22,SSE,157,5.0,5.0,78,0.00,,,0.00,WUHU21023XXSP,2013-11-04 08:13:00,
2013-11-04 02:19:00,43.2,36.7,30.22,SSE,157,9.0,9.0,78,0.00,,,0.00,WUHU21023XXSP,2013-11-04 08:19:00,
2013-11-04 02:26:00,43.3,36.9,30.23,SE,135,7.0,9.0,78,0.00,,,0.00,WUHU21023XXSP,2013-11-04 08:26:00,
2013-11-04 02:32:00,43.3,36.9,30.22,ESE,112,3.0,7.0,78,0.00,,,0.00,WUHU21023XXSP,2013-11-04 08:32:00,
2013-11-04 02:39:00,43.3,36.6,30.22,ESE,112,1.0,5.0,77,0.00,,,0.00,WUHU21023XXSP,2013-11-04 08:39:00,
2013-11-04 02:45:00,43.3,36.6,30.22,SE,135,3.0,3.0,77,0.00,,,0.00,WUHU21023XXSP,2013-11-04 08:45:00,
2013-11-04 02:51:00,43.3,36.6,30.22,SSE,157,7.0,7.0,77,0.00,,,0.00,WUHU21023XXSP,2013-11-04 08:51:00,
2013-11-04 02:58:00,43.2,36.4,30.22,SE,135,4.0,7.0,77,0.00,,,0.00,WUHU21023XXSP,2013-11-04 08:58:00,
2013-11-04 03:04:00,43.2,36.4,30.22,East,90,2.0,5.0,77,0.00,,,0.00,WUHU21023XXSP,2013-11-04 09:04:00,
2013-11-04 03:11:00,43.2,36.4,30.22,SE,135,7.0,7.0,77,0.00,,,0.00,WUHU21023XXSP,2013-11-04 09:11:00,
2013-11-04 03:17:00,43.2,36.4,30.22,SE,135,7.0,7.0,77,0.00,,,0.00,WUHU21023XXSP,2013-11-04 09:17:00,
2013-11-04 03:24:00,43.2,36.4,30.22,SSE,157,7.0,7.0,77,0.00,,,0.00,WUHU21023XXSP,2013-11-04 09:24:00,
2013-11-04 03:30:00,43.3,36.6,30.22,SSE,157,3.0,7.0,77,0.00,,,0.00,WUHU21023XXSP,2013-11-04 09:30:00,
2013-11-04 03:36:00,43.3,36.6,30.22,SSE,157,5.0,5.0,77,0.00,,,0.00,WUHU21023XXSP,2013-11-04 09:36:00,
2013-11-04 03:43:00,43.3,36.6,30.22,SSE,157,5.0,5.0,77,0.00,,,0.00,WUHU21023XXSP,2013-11-04 09:43:00,
2013-11-04 03:49:00,43.3,36.6,30.21,SE,135,3.0,8.0,77,0.00,,,0.00,WUHU21023XXSP,2013-11-04 09:49:00,
2013-11-04 03:56:00,43.3,36.6,30.20,ESE,112,2.0,8.0,77,0.00,,,0.00,WUHU21023XXSP,2013-11-04 09:56:00,
2013-11-04 04:02:00,43.3,36.2,30.21,SE,135,3.0,7.0,76,0.00,,,0.00,WUHU21023XXSP,2013-11-04 10:02:00,
2013-11-04 04:09:00,43.5,36.4,30.21,SSE,157,2.0,7.0,76,0.00,,,0.00,WUHU21023XXSP,2013-11-04 10:09:00,
2013-11-04 04:15:00,43.5,36.4,30.21,SSE,157,8.0,8.0,76,0.00,,,0.00,WUHU21023XXSP,2013-11-04 10:15:00,
2013-11-04 04:22:00,43.5,36.4,30.21,SE,135,4.0,8.0,76,0.00,,,0.00,WUHU21023XXSP,2013-11-04 10:22:00,
2013-11-04 04:28:00,43.5,36.4,30.20,ESE,112,2.0,7.0,76,0.00,,,0.00,WUHU21023XXSP,2013-11-04 10:28:00,
2013-11-04 04:34:00,43.5,36.4,30.21,SSE,157,6.0,8.0,76,0.00,,,0.00,WUHU21023XXSP,2013-11-04 10:34:00,
2013-11-04 04:41:00,43.5,36.4,30.20,SE,135,1.0,8.0,76,0.00,,,0.00,WUHU21023XXSP,2013-11-04 10:41:00,
2013-11-04 04:47:00,43.5,36.4,30.20,SE,135,7.0,7.0,76,0.00,,,0.00,WUHU21023XXSP,2013-11-04 10:47:00,
2013-11-04 04:54:00,43.5,36.4,30.20,SE,135,4.0,8.0,76,0.00,,,0.00,WUHU21023XXSP,2013-11-04 10:54:00,
2013-11-04 05:00:00,43.5,36.4,30.20,ESE,112,0.0,8.0,76,0.00,,,0.00,WUHU21023XXSP,2013-11-04 11:00:00,
2013-11-04 05:07:00,43.5,36.1,30.20,SE,135,9.0,9.0,75,0.00,,,0.00,WUHU21023XXSP,2013-11-04 11:07:00,
2013-11-04 05:13:00,43.5,36.1,30.19,SE,135,10.0,10.0,75,0.00,,,0.00,WUHU21023XXSP,2013-11-04 11:13:00,
2013-11-04 05:15:00,43.5,36.1,30.19,SE,135,6.0,10.0,75,0.00,,,0.00,WUHU21023XXSP,2013-11-04 11:15:00,
2013-11-04 05:22:00,43.5,36.1,30.18,SSE,157,6.0,10.0,75,0.00,,,0.00,WUHU21023XXSP,2013-11-04 11:22:00,
2013-11-04 05:28:00,43.5,36.1,30.18,SSE,157,2.0,6.0,75,0.00,,,0.00,WUHU21023XXSP,2013-11-04 11:28:00,
2013-11-04 05:34:00,43.5,36.1,30.18,SE,135,8.0,8.0,75,0.00,,,0.00,WUHU21023XXSP,2013-11-04 11:34:00,
2013-11-04 05:36:00,43.5,36.1,30.18,SE,135,7.0,8.0,75,0.00,,,0.00,WUHU21023XXSP,2013-11-04 11:36:00,
2013-11-04 05:43:00,43.5,35.8,30.18,SSE,157,7.0,13.0,74,0.00,,,0.00,WUHU21023XXSP,2013-11-04 11:43:00,
2013-11-04 05:49:00,43.7,35.9,30.17,SSE,157,2.0,13.0,74,0.00,,,0.00,WUHU21023XXSP,2013-11-04 11:49:00,
2013-11-04 05:56:00,43.7,35.9,30.17,SE,135,3.0,11.0,74,0.00,,,0.00,WUHU21023XXSP,2013-11-04 11:56:00,
2013-11-04 06:02:00,43.9,36.1,30.16,SSE,157,6.0,11.0,74,0.00,,,0.00,WUHU21023XXSP,2013-11-04 12:02:00,
2013-11-04 06:09:00,43.9,36.1,30.17,SSE,157,2.0,9.0,74,0.00,,,0.00,WUHU21023XXSP,2013-11-04 12:09:00,
2013-11-04 06:15:00,44.1,36.3,30.16,SSE,157,11.0,12.0,74,0.00,,,0.00,WUHU21023XXSP,2013-11-04 12:15:00,
2013-11-04 06:21:00,44.2,36.1,30.17,SSE,157,9.0,11.0,73,0.00,,,0.00,WUHU21023XXSP,2013-11-04 12:21:00,
2013-11-04 06:28:00,44.2,36.1,30.17,SE,135,5.0,11.0,73,0.00,,,0.00,WUHU21023XXSP,2013-11-04 12:28:00,
2013-11-04 06:34:00,44.2,36.1,30.17,SE,135,11.0,14.0,73,0.00,,,0.00,WUHU21023XXSP,2013-11-04 12:34:00,
2013-11-04 06:41:00,44.2,36.1,30.17,SSE,157,5.0,13.0,73,0.00,,,0.00,WUHU21023XXSP,2013-11-04 12:41:00,
2013-11-04 06:47:00,44.2,36.1,30.17,SE,135,13.0,13.0,73,0.00,,,0.00,WUHU21023XXSP,2013-11-04 12:47:00,
2013-11-04 06:54:00,44.2,36.1,30.17,SSE,157,13.0,13.0,73,0.00,,,0.00,WUHU21023XXSP,2013-11-04 12:54:00,
2013-11-04 07:00:00,44.1,35.9,30.18,SE,135,2.0,13.0,73,0.00,,,0.00,WUHU21023XXSP,2013-11-04 13:00:00,
2013-11-04 07:06:00,44.1,36.3,30.18,SE,135,6.0,14.0,74,0.00,,,0.00,WUHU21023XXSP,2013-11-04 13:06:00,
2013-11-04 07:13:00,44.1,35.9,30.18,SSE,157,13.0,14.0,73,0.00,,,0.00,WUHU21023XXSP,2013-11-04 13:13:00,
2013-11-04 07:19:00,44.1,36.3,30.18,SSE,157,6.0,13.0,74,0.00,,,0.00,WUHU21023XXSP,2013-11-04 13:19:00,
2013-11-04 07:26:00,44.1,36.3,30.18,SSE,157,4.0,13.0,74,0.00,,,0.00,WUHU21023XXSP,2013-11-04 13:26:00,
2013-11-04 07:32:00,44.1,36.3,30.18,SE,135,4.0,14.0,74,0.00,,,0.00,WUHU21023XXSP,2013-11-04 13:32:00,
2013-11-04 07:39:00,43.9,36.1,30.17,SSE,157,16.0,16.0,74,0.00,,,0.00,WUHU21023XXSP,2013-11-04 13:39:00,
2013-11-04 07:45:00,44.1,36.3,30.16,SSE,157,12.0,16.0,74,0.00,,,0.00,WUHU21023XXSP,2013-11-04 13:45:00,
2013-11-04 07:51:00,44.1,36.3,30.17,South,180,9.0,12.0,74,0.00,,,0.00,WUHU21023XXSP,2013-11-04 13:51:00,
2013-11-04 07:58:00,44.2,36.4,30.16,SSE,157,7.0,11.0,74,0.00,,,0.00,WUHU21023XXSP,2013-11-04 13:58:00,
2013-11-04 08:04:00,44.2,36.4,30.17,SSE,157,8.0,13.0,74,0.00,,,0.00,WUHU21023XXSP,2013-11-04 14:04:00,
2013-11-04 08:11:00,44.4,36.3,30.17,SE,135,8.0,12.0,73,0.00,,,0.00,WUHU21023XXSP,2013-11-04 14:11:00,
2013-11-04 08:17:00,44.6,36.4,30.16,SE,135,10.0,12.0,73,0.00,,,0.00,WUHU21023XXSP,2013-11-04 14:17:00,
2013-11-04 08:24:00,44.8,36.6,30.16,South,180,11.0,11.0,73,0.00,,,0.00,WUHU21023XXSP,2013-11-04 14:24:00,
2013-11-04 08:30:00,45.0,36.8,30.16,SSE,157,11.0,20.0,73,0.00,,,0.00,WUHU21023XXSP,2013-11-04 14:30:00,
2013-11-04 08:36:00,45.1,37.0,30.16,SE,135,10.0,11.0,73,0.00,,,0.00,WUHU21023XXSP,2013-11-04 14:36:00,
2013-11-04 08:43:00,45.3,36.8,30.16,SE,135,11.0,11.0,72,0.00,,,0.00,WUHU21023XXSP,2013-11-04 14:43:00,
2013-11-04 08:49:00,45.5,37.0,30.15,SSE,157,13.0,14.0,72,0.00,,,0.00,WUHU21023XXSP,2013-11-04 14:49:00,
2013-11-04 08:56:00,45.7,36.8,30.15,SSE,157,12.0,13.0,71,0.00,,,0.00,WUHU21023XXSP,2013-11-04 14:56:00,
2013-11-04 09:02:00,46.0,37.2,30.15,ESE,112,7.0,14.0,71,0.00,,,0.00,WUHU21023XXSP,2013-11-04 15:02:00,
2013-11-04 09:08:00,46.2,37.4,30.16,ESE,112,10.0,12.0,71,0.00,,,0.00,WUHU21023XXSP,2013-11-04 15:08:00,
2013-11-04 09:15:00,46.2,37.0,30.16,SSE,157,14.0,14.0,70,0.00,,,0.00,WUHU21023XXSP,2013-11-04 15:15:00,
2013-11-04 09:21:00,46.6,37.4,30.16,SSE,157,6.0,16.0,70,0.00,,,0.00,WUHU21023XXSP,2013-11-04 15:21:00,
2013-11-04 09:28:00,46.9,37.7,30.16,South,180,5.0,16.0,70,0.00,,,0.00,WUHU21023XXSP,2013-11-04 15:28:00,
2013-11-04 09:34:00,47.3,37.6,30.16,SE,135,8.0,10.0,69,0.00,,,0.00,WUHU21023XXSP,2013-11-04 15:34:00,
2013-11-04 09:41:00,47.7,38.0,30.15,SSE,157,7.0,10.0,69,0.00,,,0.00,WUHU21023XXSP,2013-11-04 15:41:00,
2013-11-04 09:47:00,47.8,37.7,30.15,SE,135,10.0,12.0,68,0.00,,,0.00,WUHU21023XXSP,2013-11-04 15:47:00,
2013-11-04 09:53:00,48.0,37.9,30.15,SSE,157,6.0,12.0,68,0.00,,,0.00,WUHU21023XXSP,2013-11-04 15:53:00,
2013-11-04 10:00:00,48.2,37.7,30.15,SE,135,9.0,12.0,67,0.00,,,0.00,WUHU21023XXSP,2013-11-04 16:00:00,
2013-11-04 10:06:00,48.2,37.7,30.15,SE,135,11.0,12.0,67,0.00,,,0.00,WUHU21023XXSP,2013-11-04 16:06:00,
2013-11-04 10:13:00,48.6,38.0,30.15,SE,135,7.0,11.0,67,0.00,,,0.00,WUHU21023XXSP,2013-11-04 16:13:00,
2013-11-04 10:19:00,48.6,38.0,30.14,SSE,157,10.0,11.0,67,0.00,,,0.00,WUHU21023XXSP,2013-11-04 16:19:00,
2013-11-04 10:26:00,48.7,38.2,30.14,ESE,112,6.0,16.0,67,0.00,,,0.00,WUHU21023XXSP,2013-11-04 16:26:00,
2013-11-04 10:32:00,48.9,38.4,30.14,SE,135,7.0,16.0,67,0.00,,,0.00,WUHU21023XXSP,2013-11-04 16:32:00,
2013-11-04 10:38:00,49.1,38.2,30.14,SSE,157,10.0,10.0,66,0.00,,,0.00,WUHU21023XXSP,2013-11-04 16:38:00,
2013-11-04 10:45:00,49.6,38.7,30.13,SE,135,7.0,10.0,66,0.00,,,0.00,WUHU21023XXSP,2013-11-04 16:45:00,
2013-11-04 10:51:00,49.8,38.5,30.13,SE,135,9.0,15.0,65,0.00,,,0.00,WUHU21023XXSP,2013-11-04 16:51:00,
2013-11-04 10:58:00,50.4,39.0,30.12,SE,135,11.0,16.0,65,0.00,,,0.00,WUHU21023XXSP,2013-11-04 16:58:00,
2013-11-04 11:04:00,50.5,39.2,30.12,SSE,157,11.0,16.0,65,0.00,,,0.00,WUHU21023XXSP,2013-11-04 17:04:00,
2013-11-04 11:11:00,50.5,39.2,30.12,SW,225,6.0,11.0,65,0.00,,,0.00,WUHU21023XXSP,2013-11-04 17:11:00,
2013-11-04 11:17:00,50.7,38.9,30.12,SE,135,4.0,7.0,64,0.00,,,0.00,WUHU21023XXSP,2013-11-04 17:17:00,
2013-11-04 11:23:00,51.1,38.9,30.12,SW,225,7.0,7.0,63,0.00,,,0.00,WUHU21023XXSP,2013-11-04 17:23:00,
2013-11-04 11:30:00,51.6,38.9,30.12,SSE,157,2.0,11.0,62,0.00,,,0.00,WUHU21023XXSP,2013-11-04 17:30:00,
2013-11-04 11:36:00,52.0,39.3,30.11,SSE,157,6.0,8.0,62,0.00,,,0.00,WUHU21023XXSP,2013-11-04 17:36:00,
2013-11-04 11:43:00,52.3,39.6,30.11,SE,135,9.0,9.0,62,0.00,,,0.00,WUHU21023XXSP,2013-11-04 17:43:00,
2013-11-04 11:49:00,52.5,39.4,30.11,SE,135,5.0,9.0,61,0.00,,,0.00,WUHU21023XXSP,2013-11-04 17:49:00,
2013-11-04 11:56:00,52.7,39.2,30.10,SSE,157,9.0,9.0,60,0.00,,,0.00,WUHU21023XXSP,2013-11-04 17:56:00,
2013-11-04 12:02:00,52.9,39.8,30.10,South,180,0.0,9.0,61,0.00,,,0.00,WUHU21023XXSP,2013-11-04 18:02:00,
2013-11-04 12:08:00,52.7,39.2,30.10,South,180,8.0,8.0,60,0.00,,,0.00,WUHU21023XXSP,2013-11-04 18:08:00,
2013-11-04 12:15:00,52.5,39.0,30.09,SE,135,6.0,8.0,60,0.00,,,0.00,WUHU21023XXSP,2013-11-04 18:15:00,
2013-11-04 12:21:00,52.5,39.0,30.09,SE,135,5.0,11.0,60,0.00,,,0.00,WUHU21023XXSP,2013-11-04 18:21:00,
2013-11-04 12:28:00,52.5,39.0,30.08,SE,135,9.0,11.0,60,0.00,,,0.00,WUHU21023XXSP,2013-11-04 18:28:00,
2013-11-04 12:34:00,52.5,39.0,30.08,SSW,202,5.0,9.0,60,0.00,,,0.00,WUHU21023XXSP,2013-11-04 18:34:00,
2013-11-04 12:40:00,52.5,39.0,30.08,SE,135,1.0,7.0,60,0.00,,,0.00,WUHU21023XXSP,2013-11-04 18:40:00,
2013-11-04 12:47:00,52.3,39.2,30.08,ESE,112,7.0,8.0,61,0.00,,,0.00,WUHU21023XXSP,2013-11-04 18:47:00,
2013-11-04 12:53:00,52.5,39.4,30.08,SE,135,7.0,8.0,61,0.00,,,0.00,WUHU21023XXSP,2013-11-04 18:53:00,
2013-11-04 13:00:00,52.7,39.6,30.08,ESE,112,1.0,7.0,61,0.00,,,0.00,WUHU21023XXSP,2013-11-04 19:00:00,
2013-11-04 13:06:00,52.9,39.8,30.08,SSW,202,8.0,8.0,61,0.00,,,0.00,WUHU21023XXSP,2013-11-04 19:06:00,
2013-11-04 13:13:00,53.4,39.5,30.08,SSW,202,5.0,8.0,59,0.00,,,0.00,WUHU21023XXSP,2013-11-04 19:13:00,
2013-11-04 13:19:00,54.0,40.0,30.07,SW,225,10.0,10.0,59,0.00,,,0.00,WUHU21023XXSP,2013-11-04 19:19:00,
2013-11-04 13:25:00,54.0,39.5,30.06,SSW,202,5.0,10.0,58,0.00,,,0.00,WUHU21023XXSP,2013-11-04 19:25:00,
2013-11-04 13:32:00,54.0,39.5,30.06,SSW,202,5.0,7.0,58,0.00,,,0.00,WUHU21023XXSP,2013-11-04 19:32:00,
2013-11-04 13:38:00,53.8,38.9,30.06,SE,135,20.0,20.0,57,0.00,,,0.00,WUHU21023XXSP,2013-11-04 19:38:00,
2013-11-04 13:45:00,53.8,39.3,30.06,SW,225,3.0,20.0,58,0.00,,,0.00,WUHU21023XXSP,2013-11-04 19:45:00,
2013-11-04 13:51:00,53.8,39.3,30.05,South,180,4.0,6.0,58,0.00,,,0.00,WUHU21023XXSP,2013-11-04 19:51:00,
2013-11-04 13:58:00,53.8,39.3,30.06,SW,225,7.0,7.0,58,0.00,,,0.00,WUHU21023XXSP,2013-11-04 19:58:00,
2013-11-04 14:04:00,54.1,39.6,30.06,ESE,112,4.0,7.0,58,0.00,,,0.00,WUHU21023XXSP,2013-11-04 20:04:00,
2013-11-04 14:10:00,54.7,40.1,30.05,South,180,4.0,6.0,58,0.00,,,0.00,WUHU21023XXSP,2013-11-04 20:10:00,
2013-11-04 14:17:00,55.0,40.5,30.05,South,180,1.0,5.0,58,0.00,,,0.00,WUHU21023XXSP,2013-11-04 20:17:00,
2013-11-04 14:23:00,55.2,40.6,30.05,SSW,202,2.0,4.0,58,0.00,,,0.00,WUHU21023XXSP,2013-11-04 20:23:00,
2013-11-04 14:30:00,55.2,40.6,30.05,SSE,157,0.0,7.0,58,0.00,,,0.00,WUHU21023XXSP,2013-11-04 20:30:00,
2013-11-04 14:36:00,55.0,40.5,30.05,SSW,202,9.0,9.0,58,0.00,,,0.00,WUHU21023XXSP,2013-11-04 20:36:00,
2013-11-04 14:42:00,55.0,40.5,30.05,ESE,112,0.0,9.0,58,0.00,,,0.00,WUHU21023XXSP,2013-11-04 20:42:00,
2013-11-04 14:49:00,55.0,40.5,30.04,SSE,157,9.0,9.0,58,0.00,,,0.00,WUHU21023XXSP,2013-11-04 20:49:00,
2013-11-04 14:55:00,55.8,41.1,30.03,SSW,202,5.0,9.0,58,0.00,,,0.00,WUHU21023XXSP,2013-11-04 20:55:00,
2013-11-04 15:02:00,56.3,41.7,30.03,South,180,3.0,6.0,58,0.00,,,0.00,WUHU21023XXSP,2013-11-04 21:02:00,
2013-11-04 15:08:00,56.5,41.9,30.03,ENE,67,6.0,7.0,58,0.00,,,0.00,WUHU21023XXSP,2013-11-04 21:08:00,
2013-11-04 15:15:00,56.5,41.9,30.03,South,180,3.0,6.0,58,0.00,,,0.00,WUHU21023XXSP,2013-11-04 21:15:00,
2013-11-04 15:21:00,56.3,41.7,30.04,SE,135,7.0,7.0,58,0.00,,,0.00,WUHU21023XXSP,2013-11-04 21:21:00,
2013-11-04 15:27:00,55.8,41.1,30.05,SSE,157,0.0,7.0,58,0.00,,,0.00,WUHU21023XXSP,2013-11-04 21:27:00,
2013-11-04 15:34:00,55.2,41.1,30.05,SSE,157,7.0,10.0,59,0.00,,,0.00,WUHU21023XXSP,2013-11-04 21:34:00,
2013-11-04 15:40:00,55.2,41.1,30.05,SSE,157,9.0,10.0,59,0.00,,,0.00,WUHU21023XXSP,2013-11-04 21:40:00,
2013-11-04 15:47:00,54.9,40.8,30.04,South,180,3.0,9.0,59,0.00,,,0.00,WUHU21023XXSP,2013-11-04 21:47:00,
2013-11-04 15:53:00,54.7,41.1,30.05,SSW,202,6.0,7.0,60,0.00,,,0.00,WUHU21023XXSP,2013-11-04 21:53:00,
2013-11-04 16:00:00,54.5,40.9,30.05,South,180,3.0,6.0,60,0.00,,,0.00,WUHU21023XXSP,2013-11-04 22:00:00,
2013-11-04 16:06:00,54.3,40.7,30.06,East,90,4.0,5.0,61,0.00,,,0.00,WUHU21023XXSP,2013-11-04 22:06:00,
2013-11-04 16:12:00,54.1,41.0,30.06,SSE,157,3.0,4.0,61,0.00,,,0.00,WUHU21023XXSP,2013-11-04 22:12:00,
2013-11-04 16:19:00,54.0,40.8,30.06,South,180,6.0,7.0,61,0.00,,,0.00,WUHU21023XXSP,2013-11-04 22:19:00,
2013-11-04 16:25:00,53.8,41.1,30.06,SSE,157,1.0,7.0,62,0.00,,,0.00,WUHU21023XXSP,2013-11-04 22:25:00,
2013-11-04 16:32:00,53.8,41.1,30.06,SE,135,4.0,7.0,62,0.00,,,0.00,WUHU21023XXSP,2013-11-04 22:32:00,
2013-11-04 16:38:00,53.6,41.3,30.06,SSE,157,0.0,7.0,63,0.00,,,0.00,WUHU21023XXSP,2013-11-04 22:38:00,
2013-11-04 16:44:00,53.4,41.1,30.07,South,180,1.0,7.0,63,0.00,,,0.00,WUHU21023XXSP,2013-11-04 22:44:00,
2013-11-04 16:51:00,53.4,41.1,30.07,SW,225,3.0,4.0,63,0.00,,,0.00,WUHU21023XXSP,2013-11-04 22:51:00,
2013-11-04 16:57:00,53.4,41.5,30.08,SW,225,3.0,5.0,64,0.00,,,0.00,WUHU21023XXSP,2013-11-04 22:57:00,
2013-11-04 17:04:00,53.4,41.5,30.08,South,180,5.0,5.0,64,0.00,,,0.00,WUHU21023XXSP,2013-11-04 23:04:00,
2013-11-04 17:10:00,53.2,41.3,30.08,SW,225,2.0,5.0,64,0.00,,,0.00,WUHU21023XXSP,2013-11-04 23:10:00,
2013-11-04 17:17:00,53.2,41.3,30.07,SSW,202,3.0,5.0,64,0.00,,,0.00,WUHU21023XXSP,2013-11-04 23:17:00,
2013-11-04 17:23:00,52.9,41.4,30.08,SW,225,0.0,5.0,65,0.00,,,0.00,WUHU21023XXSP,2013-11-04 23:23:00,
2013-11-04 17:29:00,52.9,41.4,30.08,South,180,0.0,3.0,65,0.00,,,0.00,WUHU21023XXSP,2013-11-04 23:29:00,
2013-11-04 17:36:00,52.9,41.4,30.08,SSE,157,3.0,3.0,65,0.00,,,0.00,WUHU21023XXSP,2013-11-04 23:36:00,
2013-11-04 17:42:00,52.7,41.6,30.09,SSW,202,0.0,3.0,66,0.00,,,0.00,WUHU21023XXSP,2013-11-04 23:42:00,
2013-11-04 17:49:00,52.5,41.5,30.09,SE,135,0.0,3.0,66,0.00,,,0.00,WUHU21023XXSP,2013-11-04 23:49:00,
2013-11-04 17:55:00,52.3,41.3,30.09,South,180,1.0,3.0,66,0.00,,,0.00,WUHU21023XXSP,2013-11-04 23:55:00,
2013-11-04 18:02:00,52.3,41.7,30.09,SSE,157,0.0,3.0,67,0.00,,,0.00,WUHU21023XXSP,2013-11-05 00:02:00,
2013-11-04 18:08:00,52.3,41.7,30.09,SE,135,0.0,0.0,67,0.00,,,0.00,WUHU21023XXSP,2013-11-05 00:08:00,
2013-11-04 18:14:00,52.2,41.5,30.09,SSW,202,0.0,1.0,67,0.00,,,0.00,WUHU21023XXSP,2013-11-05 00:14:00,
2013-11-04 18:21:00,52.0,41.4,30.09,SE,135,2.0,2.0,67,0.00,,,0.00,WUHU21023XXSP,2013-11-05 00:21:00,
2013-11-04 18:27:00,52.0,41.8,30.09,SSW,202,0.0,2.0,68,0.00,,,0.00,WUHU21023XXSP,2013-11-05 00:27:00,
2013-11-04 18:34:00,52.0,41.8,30.09,SE,135,0.0,0.0,68,0.00,,,0.00,WUHU21023XXSP,2013-11-05 00:34:00,
2013-11-04 18:40:00,51.8,41.6,30.10,SE,135,0.0,0.0,68,0.00,,,0.00,WUHU21023XXSP,2013-11-05 00:40:00,
2013-11-04 18:46:00,51.6,41.8,30.09,SSE,157,0.0,3.0,69,0.00,,,0.00,WUHU21023XXSP,2013-11-05 00:46:00,
2013-11-04 18:53:00,51.6,41.8,30.10,SSE,157,5.0,5.0,69,0.00,,,0.00,WUHU21023XXSP,2013-11-05 00:53:00,
2013-11-04 18:59:00,51.6,41.8,30.10,South,180,0.0,5.0,69,0.00,,,0.00,WUHU21023XXSP,2013-11-05 00:59:00,
2013-11-04 19:06:00,51.6,41.8,30.11,South,180,2.0,4.0,69,0.00,,,0.00,WUHU21023XXSP,2013-11-05 01:06:00,
2013-11-04 19:12:00,51.6,42.3,30.10,SSE,157,0.0,2.0,70,0.00,,,0.00,WUHU21023XXSP,2013-11-05 01:12:00,
2013-11-04 19:19:00,51.6,42.3,30.11,South,180,3.0,4.0,70,0.00,,,0.00,WUHU21023XXSP,2013-11-05 01:19:00,
2013-11-04 19:25:00,51.8,42.4,30.11,South,180,4.0,4.0,70,0.00,,,0.00,WUHU21023XXSP,2013-11-05 01:25:00,
2013-11-04 19:31:00,52.0,42.6,30.10,SSE,157,1.0,4.0,70,0.00,,,0.00,WUHU21023XXSP,2013-11-05 01:31:00,
2013-11-04 19:38:00,52.0,42.6,30.11,South,180,2.0,4.0,70,0.00,,,0.00,WUHU21023XXSP,2013-11-05 01:38:00,
2013-11-04 19:44:00,52.0,42.6,30.11,SSW,202,4.0,4.0,70,0.00,,,0.00,WUHU21023XXSP,2013-11-05 01:44:00,
2013-11-04 19:51:00,52.0,42.6,30.11,SSE,157,3.0,4.0,70,0.00,,,0.00,WUHU21023XXSP,2013-11-05 01:51:00,
2013-11-04 19:57:00,52.0,42.6,30.10,South,180,5.0,5.0,70,0.00,,,0.00,WUHU21023XXSP,2013-11-05 01:57:00,
2013-11-04 20:04:00,52.2,42.6,30.10,South,180,5.0,5.0,70,0.00,,,0.00,WUHU21023XXSP,2013-11-05 02:04:00,
2013-11-04 20:10:00,52.3,42.9,30.11,SSW,202,4.0,7.0,70,0.00,,,0.00,WUHU21023XXSP,2013-11-05 02:10:00,
2013-11-04 20:16:00,52.3,42.9,30.11,WSW,247,7.0,7.0,70,0.00,,,0.00,WUHU21023XXSP,2013-11-05 02:16:00,
2013-11-04 20:23:00,52.3,42.9,30.11,SW,225,17.0,17.0,70,0.00,,,0.00,WUHU21023XXSP,2013-11-05 02:23:00,
2013-11-04 20:29:00,52.3,43.3,30.11,South,180,7.0,17.0,71,0.00,,,0.00,WUHU21023XXSP,2013-11-05 02:29:00,
2013-11-04 20:36:00,52.3,43.3,30.11,WSW,247,3.0,7.0,71,0.00,,,0.00,WUHU21023XXSP,2013-11-05 02:36:00,
2013-11-04 20:42:00,52.2,43.3,30.12,South,180,12.0,12.0,71,0.00,,,0.00,WUHU21023XXSP,2013-11-05 02:42:00,
2013-11-04 20:49:00,52.2,43.1,30.12,SSW,202,4.0,12.0,71,0.00,,,0.00,WUHU21023XXSP,2013-11-05 02:49:00,
2013-11-04 20:55:00,52.0,43.3,30.12,SW,225,1.0,5.0,72,0.00,,,0.00,WUHU21023XXSP,2013-11-05 02:55:00,
2013-11-04 21:02:00,52.0,43.3,30.13,SSW,202,3.0,7.0,72,0.00,,,0.00,WUHU21023XXSP,2013-11-05 03:02:00,
2013-11-04 21:08:00,51.8,43.1,30.13,SW,225,2.0,3.0,72,0.00,,,0.00,WUHU21023XXSP,2013-11-05 03:08:00,
2013-11-04 21:14:00,51.6,42.9,30.13,South,180,5.0,5.0,72,0.00,,,0.00,WUHU21023XXSP,2013-11-05 03:14:00,
2013-11-04 21:21:00,51.6,42.9,30.13,SW,225,2.0,5.0,72,0.00,,,0.00,WUHU21023XXSP,2013-11-05 03:21:00,
2013-11-04 21:27:00,51.6,42.9,30.13,South,180,3.0,5.0,72,0.00,,,0.00,WUHU21023XXSP,2013-11-05 03:27:00,
2013-11-04 21:34:00,51.6,42.9,30.13,SSW,202,2.0,5.0,72,0.00,,,0.00,WUHU21023XXSP,2013-11-05 03:34:00,
2013-11-04 21:40:00,51.4,43.1,30.13,SW,225,0.0,2.0,73,0.00,,,0.00,WUHU21023XXSP,2013-11-05 03:40:00,
2013-11-04 21:47:00,51.4,43.1,30.13,SW,225,6.0,6.0,73,0.00,,,0.00,WUHU21023XXSP,2013-11-05 03:47:00,
2013-11-04 21:53:00,51.4,43.1,30.13,SSW,202,7.0,7.0,73,0.00,,,0.00,WUHU21023XXSP,2013-11-05 03:53:00,
2013-11-04 21:59:00,51.4,43.1,30.13,SW,225,4.0,7.0,73,0.00,,,0.00,WUHU21023XXSP,2013-11-05 03:59:00,
2013-11-04 22:06:00,51.3,42.9,30.13,SW,225,3.0,4.0,73,0.00,,,0.00,WUHU21023XXSP,2013-11-05 04:06:00,
2013-11-04 22:12:00,51.3,42.9,30.13,SSW,202,3.0,3.0,73,0.00,,,0.00,WUHU21023XXSP,2013-11-05 04:12:00,
2013-11-04 22:19:00,51.1,42.7,30.13,SSW,202,0.0,3.0,73,0.00,,,0.00,WUHU21023XXSP,2013-11-05 04:19:00,
2013-11-04 22:25:00,51.1,42.7,30.13,South,180,2.0,2.0,73,0.00,,,0.00,WUHU21023XXSP,2013-11-05 04:25:00,
2013-11-04 22:31:00,51.1,42.7,30.13,SW,225,1.0,4.0,73,0.00,,,0.00,WUHU21023XXSP,2013-11-05 04:31:00,
2013-11-04 22:38:00,51.1,42.7,30.13,SSW,202,4.0,4.0,73,0.00,,,0.00,WUHU21023XXSP,2013-11-05 04:38:00,
2013-11-04 22:44:00,51.1,43.1,30.13,SW,225,2.0,4.0,74,0.00,,,0.00,WUHU21023XXSP,2013-11-05 04:44:00,
2013-11-04 22:51:00,51.1,42.7,30.13,South,180,0.0,4.0,73,0.00,,,0.00,WUHU21023XXSP,2013-11-05 04:51:00,
2013-11-04 22:57:00,51.1,42.7,30.13,SSW,202,0.0,2.0,73,0.00,,,0.00,WUHU21023XXSP,2013-11-05 04:57:00,
2013-11-04 23:01:00,51.1,42.7,30.13,SW,225,1.0,3.0,73,0.00,,,0.00,WUHU21023XXSP,2013-11-05 05:01:00,
2013-11-04 23:04:00,51.1,42.7,30.13,SW,225,0.0,3.0,73,0.00,,,0.00,WUHU21023XXSP,2013-11-05 05:04:00,
2013-11-04 23:10:00,51.1,42.7,30.13,SSW,202,4.0,4.0,73,0.00,,,0.00,WUHU21023XXSP,2013-11-05 05:10:00,
2013-11-04 23:14:00,51.1,42.7,30.14,SW,225,0.0,4.0,73,0.00,,,0.00,WUHU21023XXSP,2013-11-05 05:14:00,
2013-11-04 23:17:00,51.1,42.7,30.14,SW,225,1.0,4.0,73,0.00,,,0.00,WUHU21023XXSP,2013-11-05 05:17:00,
2013-11-04 23:19:00,51.1,42.7,30.14,SSW,202,0.0,4.0,73,0.00,,,0.00,WUHU21023XXSP,2013-11-05 05:19:00,
2013-11-04 23:25:00,51.1,42.7,30.14,SSW,202,3.0,3.0,73,0.00,,,0.00,WUHU21023XXSP,2013-11-05 05:25:00,
2013-11-04 23:31:00,51.1,42.7,30.14,SW,225,3.0,3.0,73,0.00,,,0.00,WUHU21023XXSP,2013-11-05 05:31:00,
2013-11-04 23:34:00,51.1,42.7,30.14,SSW,202,1.0,3.0,73,0.00,,,0.00,WUHU21023XXSP,2013-11-05 05:34:00,
2013-11-04 23:40:00,51.1,42.7,30.14,SW,225,2.0,5.0,73,0.00,,,0.00,WUHU21023XXSP,2013-11-05 05:40:00,
2013-11-04 23:46:00,51.1,43.1,30.14,SSW,202,0.0,5.0,74,0.00,,,0.00,WUHU21023XXSP,2013-11-05 05:46:00,
2013-11-04 23:53:00,50.9,42.9,30.14,SSW,202,0.0,4.0,74,0.00,,,0.00,WUHU21023XXSP,2013-11-05 05:53:00,
2013-11-04 23:59:00,50.9,42.9,30.15,SW,225,0.0,4.0,74,0.00,,,0.00,WUHU21023XXSP,2013-11-05 05:59:00,